¡¡¡¡¢£ µ°Æ»Í×ÁÇ£±¡§¡Öjamsat¡Ýkeps¡§£±£²£µ£±¡×¤è¤ê         
¡¡¡¡¡¡¡¡¡¡¡¡¡¡¡¡¡¡¡¡SB KEPS @ AMSAT  $ORB02304.N
¡¡¡¡¡¡¡¡¡¡¡¡¡¡¡¡¡¡¡¡2Line Orbital Elements 02304.AMSAT
HR AMSAT ORBITAL ELEMENTS FOR AMATEUR SATELLITES IN NASA FORMAT
FROM WA5QGD FORT WORTH,TX October 31, 2002
SEND SUBSCRIBE/UNSUBSCRIBE TO majordomo@amsat.org ONLY
BID: ORB02304.N
¡¡DECODE 2-LINE ELSETS WITH THE FOLLOWING KEY:
¡¡1 AAAAAU 00  0  0 BBBBB.BBBBBBBB  .CCCCCCCC  00000-0  00000-0 0  DDDZ
¡¡2 AAAAA EEE.EEEE FFF.FFFF GGGGGGG HHH.HHHH III.IIII JJ.JJJJJJJJKKKKKZ
¡¡KEY: A-CATALOGNUM B-EPOCHTIME C-DECAY D-ELSETNUM E-INCLINATION F-RAAN
¡¡G-ECCENTRICITY H-ARGPERIGEE I-MNANOM J-MNMOTION K-ORBITNUM Z-CHECKSUM
FO-29
1 24278U 96046B   02303.90370146  .00000029  00000-0  63169-4 0 05442
2 24278 098.5288 105.2286 0351189 143.2872 219.2902 13.52859936306345
 ¢£ µ°Æ»Í×ÁÇ£²¡§¡Öjamsat¡Ýkeps¡§£±£²£µ£²¡×¤è¤ê¡¡
¡¡¡¡¡¡¡¡¡¡¡¡¡¡SB KEPS @ AMSAT  $ORB02304.O
¡¡¡¡¡¡¡¡¡¡¡¡¡¡Orbital Elements  02304.OSCAR
HR AMSAT ORBITAL ELEMENTS FOR OSCAR SATELLITES
FROM WA5QGD FORT WORTH,TX October 31, 2002
SEND SUBSCRIBE/UNSUBSCRIBE TO majordomo@amsat.org ONLY
BID: ORB02304.O
TO ALL RADIO AMATEURS BT
Satellite: FO-29
Catalog number: 24278
Epoch time:      02303.90370146
Element set:    0544
Inclination:      098.5288 deg
RA of node:       105.2286 deg
Eccentricity:    0.0351189
Arg of perigee:   143.2872 deg
Mean anomaly:     219.2902 deg
Mean motion:   13.52859936 rev/day
Decay rate:        2.9e-07 rev/day^2
Epoch rev:           30634
Checksum:              317
-------------------¡¡¡¡FO-29¡ÊJAS-2)¤Î¥Æ¥ì¥á¥È¥ê¤Ë´Ø¤¹¤ë¾ðÊó¡¡¡¡----------------------¡¡
¡¡
£²¡Ë¾åµ£²£°£°£²Ç¯£±£±·î£²Æü¡ÊÅڡˤΥƥì¥á¥È¥ê¤Î£±£¶:£°£¶¤Î¥Ñ¥¹¤ÎºÇ½ª¹Ô¤òʬÀϤ·¤Æ
¡¡¤ª¤¤Þ¤¹¡£
AS30667C  02Nov2002
16:06-16:19(JST)
AOS   MEL  LOS  Elev
 27   166 166   26.5
Freq. 435.804-.786Hz
(JAS-2 No.110  B 1230-1840)
HI HI AE 07 88 55 00 D4 9A 61 09 31 76 7E 57 5B 88 85 91 79 84 85 8C 89 7F 
 
¥Æ¥ì¥á¥È¥ê¡¡  Æâ¡¡ÍÆ¡¡ ¡¡     ´¹»»»»ÃÍ¡¡Ã± °Ì
£³£Ã	¼§µ¤¥»¥ó¥µ¡¼£Ú¼´=	57843.1	[nT]
£³£Ä	¼§µ¤¥»¥ó¥µ£Ø¼´	=	61764.7	[nT]
£´£Á	ÂÀÍÛÅÅÃÓȯÀ¸ÅÅή=	852.9	[mA]
£´£Â	£Â½¼ÊüÅÅÅÅή	=	-216.4	[mA]
£´£Ã	£Âü»ÒÅ۵	=	14.6	[V]
£´£Ä	£ÂÃæ´Öü»ÒÅ۵	=	6.4	[V]
£µ£Á	¥Ð¥¹Å۵	=	14.2	[V]
£µ£Â	£Ê£Ô£ÁÁ÷¿®ÅÅÎÏ	=	688.4	[mW]
£µ£Ã 	¹½Âβ¹ÅÙ£±	=	30.6	[¡î]
£µ£Ä	¹½Âβ¹ÅÙ£²	=	30.2	[¡î]
£¶£Á	¹½Âβ¹ÅÙ£³	=	27.5	[¡î]
£¶£Â	¹½Âβ¹ÅÙ£´	=	28.7	[¡î]
£¶£Ã	£Â¥»¥ë²¹ÅÙ	=	32.6	[¡î]
 ==========================¡¡FO-29¡Ê¤Õ¤¸£³¹æ¡Ë¤Î¥Æ¥ì¥á¥È¥êʬÀÏ¡¢£Ñ£Ó£Ï¾ðÊóÅù¡¡=====================
   
¡¡£³)[jamsat-bb:£±£²£µ£´£²¡Ï¤Ë¤ÆJAS-1£â¡ÊFO-20)±¿ÍѤˤĤ¤¤ÆJN1GKZ¿·°æ¤µ¤ó¥³¥á¥ó¥È¤¬¤¢¤ê¤Þ¤·¤¿¤Î¤Ç
¡¡¡¡¡¡Å¾ºÜ¤µ¤»¤ÆÄº¤¤Þ¤·¤¿¡£
¡¡WH6BIE Kely¤µ¤ó¤¬FO-20¤ËQRV¤µ¤ì¤Æ¤¤¤Þ¤¹¡£27Æü 13»þ²á¤®¤Î¥Ñ¥¹¤ÇÎɹ¥
¤ËQSO¤Ç¤¤Þ¤·¤¿¡£¤³¤Î¥Ñ¥¹¤Ç¤Ï¶å½£¤Þ¤Ç³«¤±¤Æ¤¤¤Þ¤·¤¿¤¬¡¢QSO¤·¤¿¤Î¤Ï»ä
¤À¤±¤Î¤è¤¦¤Ç¤·¤¿¡£
¡¡Ëè½µËö¡¢FO-20¤ÎÆüËܤȤΥѥ¹¤ËQRV¤¹¤ë¤È¤Î¤³¤È¤Ç¤·¤¿¤Î¤Ç¡¢Ãµ¤·¤Æ¤ß¤Æ
²¼¤µ¤¤¡£
JN1GKZ ¿·°æ
   jn1gkz@jamsat.or.jp     http://www.ne.jp/asahi/m-arai/gkz/
-------------
JAMSAT BB Mailing List
http://www.jamsat.or.jp/infoserv/mlist.html
 =================================================================================================
¡¡
¡¡£´¡Ë£Ê£Á£Ò£Ì ¤Î¥Û¡¼¥à¥Ú¡¼¥¸¤Ë±¿ÍÑͽÄ꤬µºÜ¤µ¤ì¤Æ¤¤¤Þ¤·¤¿¤Î¤Ç¤´¾Ò²ð¤·¤Þ¤¹¡¥
       ¡Ê http://www.jarl.or.jp/Japanese/3_Fuji/new/uy.htm ¡Ë
       
¡¡¡¡¡¡¡¡¡¡¡¡¡¡¡¡¡ö¡ö¡ö¡¡±¿ÍÑͽÄê¤Ë¤Ä¤¤¤Æ¡¡¡ö¡ö¡ö
¡¡¡¡¡¡£´·î£°£±Æü¡Ê·î¡Ë¡¡¡Á¡¡£¶·î£³£°Æü¡ÊÆü¡Ë¥¢¥Ê¥í¥°·Ï±¿ÍÑ 
¡¡¡¡¡ö¤Ê¤ª¡¤±¿ÍÑͽÄê¤ÏÅÔ¹ç¤Ë¤è¤ê¡¤Êѹ¹¤¹¤ë¤³¤È¤¬¤¢¤ê¤Þ¤¹¤Î¤Ç¡¤¤¢¤é¤«¤¸¤á¤´Î»¾µ´ê¤¤¤Þ¤¹¡£
¡¡¾È²ñÀè¡¡¡§¡¡lab@jarl.or.jp
¡¡ºÇ¿·¤Î¾ðÊó¤Ï¥Æ¥ì¥Û¥ó¥µ¡¼¥Ó¥¹¡Ê£°£³¡Ý£³£¹£´£²¡Ý£±£°£°£°¡Ë¤ò¤ªÊ¹¤¤¯¤À¤µ¤¤¡£¡¡¡¡
¡¡°Ê¸å¤Î±¿ÍѤˤĤ¤Þ¤·¤Æ¤ÏÊ¿À®£±£´Ç¯£··î¾å½Ü¤Ë¤ªÃΤ餻¤¤¤¿¤·¤Þ¤¹¡£¡¡¡¡¡¡¡¡¡¡¡¡¡¡ 
 ¡¡¡¡¡¡¡¡
-----------------------    £Æ£Ï¡Ý£²£°¡ÊJAS-£±£â¡ËÆ»Í×ÁÇ   -------------------------
 ¡¡
 ¡¡¢£ µ°Æ»Í×ÁÇ£± ¡§½Ðŵ¤Ï£Æ£Ï-£²£¹¡Ö¤Õ¤¸£³¹æ¡×¤ËƱ¤¸¡¥
  
FO-20
1 20480U 90013C   02303.91819747  .00000009  00000-0  99444-4 0 04427
2 20480 099.0289 282.5518 0539597 254.5376 099.5528 12.83324840596322
 
 ¡¡¢£ µ°Æ»Í×ÁÇ£² ¡§½Ðŵ¤Ï£Æ£Ï¡Ý£²£¹¡Ö¤Õ¤¸£³¹æ¡×¤ËƱ¤¸¡¥
               
Satellite: FO-20
Catalog number: 20480
Epoch time:      02303.91819747
Element set:    0442
Inclination:      099.0289 deg
RA of node:       282.5518 deg
Eccentricity:    0.0539597
Arg of perigee:   254.5376 deg
Mean anomaly:     099.5528 deg
Mean motion:   12.83324840 rev/day
Decay rate:        9.0e-08 rev/day^2
Epoch rev:           59632
Checksum:              337
--------------------------------------------------------------------------------¡¡
¡¡        ¢£ ¤Õ¤¸£²¹æ¡¿£Æ£Ï¡Ý£²£°/JAS-1£â ¢£  ¡¡   
            
¡¡¡¡¡¡¡¡¡¡¡¡¡¡¡¡¡¡¡¡¡Ö¤Õ¤¸£²¹æ¡×¡¡¸½¶·                                                                                  
             
   JAS-1b¡Ê¤Õ¤¸£²¹æ¡Ë¤Î£Ã£×¥Æ¥ì¥á¥È¥ê¿®¹æ¤Ë¡¤£±£¹£¹£·Ç¯£±£°·î£±£²Æü£±£²»þ¡Ê£Ê£Ó£Ô¡Ë¤Î
¡¡ÆüËܾå¶õÄ̲á»þ¡¤£³·å¤Î¿ô»ú¤¬·«¤êÊÖ¤µ¤ì¤ë¤Ï¤º¤¬£³¸Ä¤ÎĹ²»¤Î·«¤êÊÖ¤·¤È¤Ê¤Ã¤Æ¤¤¤ë¤È¤¤¤¦
¡¡°Û¾ï¤¬È¯¸«¤µ¤ì¤Þ¤·¤¿¡£¤³¤ÎÉÔ¶ñ¹ç¤Ï¼¡¤ÎÄ̲á»þ¤«¤é¤Ï²óÉü¤·¤Æ¤¤¤Þ¤·¤¿¤¬£±£³Æü£±£µ»þ£²£°Ê¬¤Î
¡¡Ä̲á»þ¤ËºÆ¤Ó´Ñ¬¤µ¤ì¤Þ¤·¤¿¡£¸½ºß¤Ï£Á£°¤ÎÁ÷¿®¤¬Â³¤¤¤Æ¤¤¤Þ¤¹¡£±ÒÀ±¤Î¥¢¥Ê¥í¥°·ÏÃæ·Ñ¥â¡¼¥É
¡¡Æ°ºî¤Ï°Û¾ï¤¬Ìµ¤¯¡¤Àµ¾ï»þ¤Î¥Æ¥ì¥á¥È¥êÆâÍÆ¤«¤é¤Ï±ÒÀ±¤Îưºî¤Ë°Û¾ï¤Ïǧ¤á¤é¤ì¤Þ¤»¤ó¡£½¾¤Ã¤Æ¡¤
¡¡Ä¾¤Á¤Ë±ÒÀ±¤Î¥ß¥Ã¥·¥ç¥ó¤Ë±Æ¶Á¤¹¤ë¤³¤È¤Ï̵¤¤¤ÈͽÁÛ¤µ¤ì¤Þ¤¹¤Î¤Ç¡¤ÅöÌ̤ϥ¢¥Ê¥í¥°·ÏÃæ·Ñ
¡¡¥â¡¼¥É¤ò·Ñ³¤·¤Þ¤¹¡£±ÒÀ±¤Ï´û¤ËÂǤÁ¾å¤²¤Æ¤«¤é£·Ç¯£¸¥ö·î¤ò·Ð¤Æ¤ª¤ê¤Þ¤¹¤Î¤Ç¡¤º£¸å¤Ï´Æ»ë¤ò
¡¡¶¯²½¤¹¤ëͽÄê¤Ç¤¹¡£¥¢¥Þ¥Á¥å¥¢³Æ°Ì¤Î¥ì¥Ý¡¼¥È¤ò¤ªÂÔ¤Á¤·¤Þ¤¹¡£
¡¡-------------------------------------------------------------------------------- 
¡¡¡¡1997ǯ10·î14Æü¡¡00»þ35ʬ ³Îǧ¤Î¥Æ¥ì¥á¥È¥ê²» 151 KB ¡Ê£Á£°¡Ë 
¡¡¡¡1997ǯ10·î14Æü¡¡11»þ10ʬ ³Îǧ¤Î¥Æ¥ì¥á¥È¥ê²» 216 KB ¡Ê°Û¾ï¥¡¼¥¤¥ó¥°¡Ë 
  °Ê¾å¡¡£Ê£Á£Ò£Ì¤Î¥Û¡Ý¥à¥Ú¡¼¥¸¤Î http://www.jarl.or.jp/Japanese/3_Fuji/new/fuji.htm
===================== FO-20¡¡¤Õ¤¸£²¹æ¡¡¤Î¥Æ¥ì¥á¥È¥ê´Ñ¬·ë²Ì¡¡====================
  £³·î£¸Æü¡Ê¶â¡Ë£±£¸¡§£±£¸¡ÊJST)¤Î´Ñ¬·ë²Ì¤Ç¤Ï¥Æ¥ì¥á¥È¥ê¤Ï¡¢°ÊÁ°´Ñ¬¤·¤¿Ã±°ì¼þÇÈ¿ô¤Î
Àµ¸¹ÇȤ¬¥É¥Ã¥×¥é¡¼¸ú²Ì¤Ç¼þÇÈ¿ô¤¬¤º¤ì¤Æ¤¤¤¯¤Î¤ß¤Î¾õÂ֤Ǥ·¤¿¡£
                                         
   =============   JAS-2 ¡Ê¤Õ¤¸£³¹æ¡Ë¤È¸½ºß¤Þ¤Ç¤Î¾ðÊó   ===========
  
  £Á¡¥ÅÅÏäˤè¤ë¤Õ¤¸£³¹æ¤Î±¿ÍѾðÊó
      ¼ÒÃÄË¡¿ÍÆüËÜ¥¢¥Þ¥Á¥å¥¢Ï¢ÌÁ¤Ë¤è¤ë¥µ¡¼¥Ó¥¹
           £Ô£Å£Ì ¡¥   £°£³¡Ý £³£¹£´£² ¡Ý £±£°£°£°
  £Â¡¥¥¢¥Þ¥Á¥å¥¢ÌµÀþ£Æ£Á£Ø¥µ¡¼¥Ó¥¹
      £Ê£Á£Ò£Ì¤Ë¤è¤ë¤Õ¤¸£³¹æ¤Îµ°Æ»¾ðÊó¡Ê¥ª¡¼¥Ó¥Ã¥È¥«¥ì¥ó¥À¡¼¡Ë
         £Æ£Á£Ø £Î£ï¡¥  £°£³¡Ý £³£²£³£³ ¡Ý£°£°£µ£µ
  £Ã¡¥£×£×£×¥Ö¥é¥¦¥¶¤Ç¾ðÊó¤ò´Êñ¤Ë¸«¤ì¤ë¿Í¤Î¤¿¤á¤Ë£Ê£Á£Ó-1,£Ê£Á£Ó¡¾£±£â,
¡¡¡¡¡¡£Ê£Á£Ó¡¾£²¡Ê¤Õ¤¸£±¹æ¤«¤é¤Õ¤¸£³¹æ¤Î±ÒÀ±¤È¤·¤Æ¤Î±¿ÍѤµ¤ì¤ë¤Þ¤Ç¤Î̾Á°¡Ë¤Î
¡¡¡¡¡¡³µÍס¢ÂǤÁ¾å¤²¤Þ¤Ç¤Î¾õ¶·¡¢±¿ÍÑÃæ¤Ë¤ª¤±¤ë¾õ¶·¤òÀâÌÀ¤·¤¿¥Û¡¼¥à¥Ú¡¼¥¸¤ò
¡¡¡¡¡¡¾Ò²ð¤·¤Æ¤ª¤¤Þ¤¹¡¥
    ¡ ¼ÒÃÄË¡¿ÍÆüËÜ¥¢¥Þ¥Á¥å¥¢ÌµÀþÏ¢ÌÁ¡Ê£Ê£Á£Ò£Ì¡Ë¤Î¥Û¡¼¥à¥Ú¡¼¥¸
         http://www.jarl.or.jp/Japanese/3_Fuji/new/fuji.htm
¡¡¡¡¡¡¡¡ http://www.jarl.or.jp/Japanese/3_Fuji/history/history.htm
 
    ¢ ±§Ã賫ȯ»ö¶ÈÃġʣΣÁ£Ó£Ä£Á¡Ë¥Û¡¼¥à¥Ú¡¼¥¸ 
      1)¡Ö¤Õ¤¸£±¹æ¡×¡Ê£Ê£Á£Ó¡Ý£±¡§£Æ£Ï¡Ý£±£²¡Ë
         http://spaceboy.nasda.go.jp/lib/satellites/jas/j/jas_01_j.html
         http://spaceboy.nasda.go.jp/lib/satellites/jas/g/h_15_017.jpg
         http://spaceboy.nasda.go.jp/lib/satellites/jas/e/jas_01_e.html
         http://space.nasda.go.jp/db/kaihatu/eisei/eisei_j/jas_1_a_j.html#2
         http://spaceboy.nasda.go.jp/note/eisei/j/eis15h_j.html#eis15h_01_j
         http://www.nasda.go.jp/lib/nasda-news/1996/12/resai_j.html
         http://spaceboy.nasda.go.jp/lib/satellites/jas/g/h_15_007.jpg
         http://www.nasda.go.jp/press/2002/02/pb_020220_j.html
      2)¡Ö¤Õ¤¸£²¹æ¡×¡Ê£Ê£Á£Ó¡Ý£±£â¡§£Æ£Ï¡Ý£²£°¡Ë
         http://spaceboy.nasda.go.jp/lib/satellites/mos/g/h_21_018.jpg
         http://spaceboy.nasda.go.jp/lib/satellites/mos/g/h_21_019.jpg
         http://spaceboy.nasda.go.jp/note/eisei/j/eis15h_j.html#eis15h_01_j
      3)¡Ö¤Õ¤¸£³¹æ¡×¡Ê£Ê£Á£Ó¡Ý£²¡§£Æ£Ï¡Ý£²£¹¡Ë
         http://www.nasda.go.jp/lib/nasda-news/1996/09/h2_j.html
         http://www.nasda.go.jp/pr/services/presskit/h2-f4/p-h2_3_e.html
         http://space.nasda.go.jp/db/kaihatu/eisei/eisei_j/jas-2_j.html
         http://spaceboy.nasda.go.jp/note/eisei/j/eis15i_j.html#eis15i_03_j
  £Ä¡¥£Ê£Á£Í£Ó£Á£Ô¤Ë¤è¤ëµ°Æ»¾ðÊó¤Î³èÍÑ
        JAMSAT¤Î¥Û¡¼¥à¥Ú¡¼¥¸¤Þ¤¿¤Ïjamsat¡Ýkeps¤Îµ°Æ»Í×ÁǤè¤ê
      ±ÒÀ±¤Îµ°Æ»¾ðÊó¤òÆÀ¤ë¡¥
     £Ê£Á£Í£Ó£Á£Ô¥Û¡¼¥à¥Ú¡¼¥¸
               £Õ£Ò£Ì    http://www.jamsat.or.jp
       ¾åµ¥Û¡¼¥à¥Ú¡¼¥¸¤Ç¤Ï³ÆÃϤǹԤï¤ì¤ë¥¢¥Þ¥Á¥å¥¢ÄÌ¿®±ÒÀ±¤Ë´Ø¤¹¤ë
      ¥ß¥å¡¼¥Æ¥£¥ó¥°¤Î¤ªÃΤ餻¤äÀ¤³¦¤Î¥¢¥Þ¥Á¥å¥¢±ÒÀ±¤Ë´Ø¤¹¤ë¾ðÊó¤¬
      ËþºÜ¤µ¤ì¤Æ¤¤¤Þ¤¹¡¥
¡¡========================================================================  
¡¡    £Ê£Á£Í£Ó£Á£Ô¤Î¥á¥ó¥Ð¡¼¤Î¤´¶¨ÎϤˤè¤ê£Ê£È£¶£Í£Í£Å¡Ê¹â»³ ½¨Â¤¡Ë¤¬
    ¼¹É®¡¦ÊÔ½¸¤òôÅö¤·¤Æ¤ª¤ê¤Þ¤¹¡¥¤´»ØÅ¦¤Î°Õ¸«¡¢µ¿Ìä¤ä¤³¤Î¤è¤¦¤Ë¤·¤¿¤é
    ¤È¤¤¤¦¥¢¥¤¥Ç¥¢¤¬¤¢¤ê¤Þ¤·¤¿¤é¾®¤µ¤Ê¤³¤È¤Ç¤â¤«¤Þ¤¤¤Þ¤»¤ó¤Î¤Çµ¤·Ú¤Ë²¼
    µ¥¢¥É¥ì¥¹¤Þ¤Ç¤´Ï¢Íí¤¯¤À¤µ¤¤¡¥£ê£á£í£ó£á£ô¡Ý£î£å£÷£ó¤«¤é£ê£á£ó£²
    £é£î£æ£ï¤Ø¤ÎžºÜ¤ò£Ê£È£´£Ð£È£×¶Éºä°æ¤µ¤ó¤ËôÅö¤·¤ÆÄº¤¤¤Æ¤ª¤ê¤Þ¤¹¡¥  
                  E-mail : jh6mme@jamsat.or.jp : jh4phw@jamsat.or.jp
 ===============================   £Å£Î£Ä  ===============================